This is the latest recevied weather packets stored in our database for station/object KM4CNW. If no packets are shown the sender has not sent any weather packets the latest 1 day(s).
| Time | Temp. | Humidity | Pressure | Rain* | Wind** | Luminosity | Snow |
|---|---|---|---|---|---|---|---|
| 1778033101 | 17.22° C | 61% | 1008.5 hPa | 0 mm | - | 0 W/m² | - |
| 1778032495 | 17.22° C | 59% | 1008.7 hPa | 0 mm | - | 0 W/m² | - |
| 1778032192 | 17.22° C | 60% | 1008.6 hPa | 0 mm | - | 0 W/m² | - |
| 1778031889 | 17.78° C | 60% | 1008.6 hPa | 0 mm | - | 0 W/m² | - |
| 1778031585 | 17.78° C | 58% | 1008.5 hPa | 0 mm | - | 0 W/m² | - |
| 1778031283 | 17.78° C | 58% | 1008.4 hPa | 0 mm | - | 0 W/m² | - |
| 1778030979 | 18.33° C | 57% | 1008.6 hPa | 0 mm | - | 0 W/m² | - |
| 1778030676 | 18.33° C | 56% | 1008.3 hPa | 0 mm | - | 0 W/m² | - |
| 1778030373 | 18.89° C | 55% | 1008.3 hPa | 0 mm | - | 0 W/m² | - |
| 1778029767 | 19.44° C | 53% | 1008.4 hPa | 0 mm | - | 0 W/m² | - |
| 1778029466 | 20° C | 52% | 1008 hPa | 0 mm | - | 0 W/m² | - |
| 1778029161 | 20° C | 50% | 1008.1 hPa | 0 mm | - | 0 W/m² | - |
| 1778028860 | 20.56° C | 48% | 1008.1 hPa | 0 mm | - | 0 W/m² | - |
| 1778028253 | 21.11° C | 45% | 1007.8 hPa | 0 mm | - | 0 W/m² | - |
| 1778027645 | 21.67° C | 44% | 1008.1 hPa | 0 mm | - | 0 W/m² | - |
| 1778027342 | 22.22° C | 43% | 1007.6 hPa | 0 mm | - | 0 W/m² | - |
| 1778027038 | 22.22° C | 42% | 1007.8 hPa | 0 mm | - | 0 W/m² | - |
| 1778026733 | 22.78° C | 42% | 1007.8 hPa | 0 mm | - | 1 W/m² | - |
| 1778024311 | 23.33° C | 39% | 1007.6 hPa | 0 mm | - | 17 W/m² | - |
| 1778023100 | 23.89° C | 37% | 1007.4 hPa | 0 mm | - | 42 W/m² | - |
| 1778022798 | 23.89° C | 37% | 1007.3 hPa | 0 mm | - | 43 W/m² | - |
| 1778022496 | 24.44° C | 37% | 1007.2 hPa | 0 mm | - | 33 W/m² | - |
| 1778022193 | 24.44° C | 37% | 1007.5 hPa | 0 mm | - | 31 W/m² | - |
| 1778020677 | 25° C | 34% | 1007.6 hPa | 0 mm | - | 49 W/m² | - |
| 1778019766 | 25.56° C | 32% | 1007.7 hPa | 0 mm | - | 142 W/m² | - |
* Rain latest hour (hover to see other rain measurements)
** Current wind speed in m/s (hover to see current wind gust speed)